Yellowstone Regional Airport Cody US
ICAO: KCOD
IATA: COD
Category: Medium
Scheduled Services: No

Elevation: 5102 ft
TransAlt. 18000 ft.

Airport Communications:
AWOS 3:135.075
SALT LAKE CITY CNTR:133.25
CASPER RDO:122.3
CTAF/UNICOM:122.8

KCOD Zoom In..

Runways:

(A) RW 04 length 8268 ft width 100 ft
---- / hdg 38

(B) RW 22 length 8268 ft width 100 ft
---- / hdg 218

Location; KCOD
Day. 21 / Time. 04.56 Zulu
* Altimeter: 30.09
* Temperature: 23° c. 73.4°f.
* Wind from: 290° Speed 03 kn.
Dewpoint: 07° c.
Visibility: 10 Statute Miles.
Clouds: Clear (automated report).

KCOD 210456Z AUTO 29003KT 10SM CLR 23/07 A3009 RMK AO2 SLP133 T02330072


Wind From 290°
Speed 03 kn.

 
 
jpsmedia.com for Web Design worldairports.se 2018   terms of use